Content
SEND FEEDBACK

Daily
Averages
Monthly
Summary
Grenada

SAINT GEORGE'S, GRENADA


Home > Caribbean > Grenada
Elevation: 23 feet     Latitude: 12 01N     Longitude: 061 48W

WEATHER
 
SELECT A DAY
Number of Records: 153,845;   Date Range: 6/30/96 - 8/10/14
 
SHARE

PRINT THIS DATA

[ ← Previous Day ]
WEATHER ALMANAC - JANUARY 14, 2013
[ Next Day → ]
[ °C ]   °F
Weather ElementAverageHighLow
Temperature78.8 °F84.2 °F (11:00 am)73.4 °F (1:00 am)
Dewpoint69.9 °F72 °F (2:00 pm)66.2 °F (6:00 am)
Humidity73.2 %94 % (1:00 am)58 % (11:00 am)
Barometer29.95 in30.01 in (9:00 am)29.89 in (2:00 pm)
Wind Speed10.5 mph18.4 mph (10:00 am)
Weather ElementAverage
Visibility8.1 mi
Wind DirectionENE (80.3 °)

Weather ElementTotal
Precipitation---
Cooling Degree Days13.8 (Base 65)
Growing Degree Days28.8 (Base 50)
Averaged from 30 records on January 14, 2013
WEATHER CONDITIONS BREAKOUT
WIND DIRECTION BREAKOUT
WEATHER BY HOUR - JANUARY 14, 2013
[ °C ]   °F
Local TimeTemperatureDewpointHumidityBarometerVisibilityWind DirectionWind SpeedGust SpeedPrecipitationEventsConditions
1:00 AM73.4 °F71.6 °F94 %29.95 in6.2 miENE (60°)5.8 mphPartly Cloudy
2:00 AM75.2 °F69.8 °F83 %29.92 in6.2 miNE (50°)5.8 mphPartly Cloudy
3:00 AM75.2 °F68.0 °F78 %29.92 in6.2 miVariable2.3 mphPartly Cloudy
4:00 AM73.4 °F68.0 °F83 %29.92 in6.2 miNE (50°)6.9 mphPartly Cloudy
5:00 AM78.0 °F67.0 °F62 %29.95 in16.0 miNE (50°)5.8 mphScattered Clouds
5:00 AM73.4 °F68.0 °F83 %29.95 in6.2 miNE (50°)5.8 mphPartly Cloudy
6:00 AM73.4 °F66.2 °F78 %29.95 in6.2 miNE (50°)4.6 mphPartly Cloudy
7:00 AM73.4 °F68.0 °F83 %29.98 in6.2 miENE (60°)4.6 mphPartly Cloudy
7:40 AM78.8 °F69.8 °F74 %29.98 in6.2 miCalmPartly Cloudy
8:00 AM78.8 °F69.8 °F74 %29.98 in6.2 miENE (70°)5.8 mphPartly Cloudy
9:00 AM82.4 °F69.8 °F66 %30.01 in6.2 miESE (110°)11.5 mphPartly Cloudy
10:00 AM82.4 °F71.6 °F70 %29.98 in6.2 miESE (110°)18.4 mphScattered Clouds
11:00 AM83.0 °F71.0 °F58 %29.97 in16.0 miESE (110°)18.4 mphScattered Clouds
11:00 AM84.2 °F69.8 °F62 %29.98 in6.2 miESE (110°)18.4 mphPartly Cloudy
12:00 PM84.2 °F71.6 °F66 %29.95 in6.2 miESE (120°)17.3 mphPartly Cloudy
1:00 PM84.2 °F69.8 °F62 %29.92 in6.2 miESE (110°)18.4 mphScattered Clouds
2:00 PM84.0 °F72.0 °F60 %29.91 in14.0 miESE (110°)18.4 mphPartly Cloudy
2:00 PM84.2 °F71.6 °F66 %29.89 in6.2 miESE (110°)18.4 mphScattered Clouds
3:00 PM84.2 °F71.6 °F66 %29.89 in6.2 miEast (100°)16.1 mphScattered Clouds
4:00 PM82.4 °F71.6 °F70 %29.92 in6.2 miEast (100°)17.3 mphScattered Clouds
5:00 PM81.0 °F71.0 °F65 %29.94 in16.0 miEast (100°)15.0 mphScattered Clouds
5:00 PM80.6 °F71.6 °F74 %29.92 in6.2 miEast (100°)15.0 mphPartly Cloudy
6:00 PM78.8 °F69.8 °F74 %29.95 in6.2 miEast (90°)10.4 mphPartly Cloudy
7:00 PM77.0 °F69.8 °F78 %29.95 in6.2 miEast (80°)10.4 mphPartly Cloudy
8:00 PM76.0 °F70.0 °F75 %29.95 in16.0 miEast (80°)9.2 mphScattered Clouds
8:00 PM77.0 °F69.8 °F78 %29.95 in6.2 miEast (80°)9.2 mphPartly Cloudy
9:00 PM77.0 °F69.8 °F78 %29.95 in6.2 miEast (90°)8.1 mphPartly Cloudy
10:00 PM77.0 °F69.8 °F78 %29.95 in6.2 miEast (100°)3.5 mphPartly Cloudy
11:00 PM76.0 °F70.0 °F76 %29.95 in16.0 miEast (80°)6.9 mphScattered Clouds
11:00 PM75.2 °F69.8 °F83 %29.95 in6.2 miEast (80°)6.9 mphPartly Cloudy
Hourly data recorded from TGPY, located miles away from Saint George's, Grenada







STORIES FROM OUR PARTNERS